Current Version              Previous Version:    01  02  03  04  05  06  07  08  09  10  11  12  13  14  15  16  17  18  19  20  21  22  23  24  25  26  27  28  29  30  
   31  32  33  34  35  36  37  38  39  40  41  42  43  44  45  46  47  48  49  50  51  52  53  54  55  56  57  58  59  60  

[Printable]
123
ASUS44 KFWD 170903
RWRTX
NORTH TEXAS HOURLY WEATHER ROUNDUP
NATIONAL WEATHER SERVICE FORT WORTH TX
400 AM CDT THU APR 17 2014

NOTE: "FAIR" INDICATES FEW OR NO CLOUDS BELOW 12,000 FEET WITH NO
SIGNIFICANT WEATHER AND/OR OBSTRUCTIONS TO VISIBILITY.

TXZ118-119-171000-
DALLAS/FORT WORTH METROPLEX

CITY           SKY/WX    TMP DP  RH WIND       PRES   REMARKS
DFW AIRPORT    CLEAR     51  43  74 SE8       30.05S
DALLAS LOVE    CLEAR     53  43  68 SE12      30.06S
FTW MEACHAM    CLEAR     53  45  74 SE10      30.04R
DAL-EXECUTIVE  CLEAR     49  42  77 SE7       30.05S
FTW-ALLIANCE   CLEAR     51  43  74 SE7       30.04S
FTW-NAS-JRB    CLEAR     56  43  61 E9G16     30.09R
FTW-SPINKS     CLEAR     50  44  78 SE8       30.06R
ARLINGTON      CLEAR     52  45  77 SE9       30.05S
GRAND PRAIRIE  CLEAR     50  43  76 SE5       30.08R
ADDISON        PTCLDY    54  44  69 SE10      30.08S
MESQUITE       CLEAR     48  41  75 SE7       30.08R
LANCASTER      CLEAR     48  41  77 E5        30.07S
$$

TXZ091>094-102>105-117-120-121-131>134-171000-
NORTH CENTRAL TEXAS

CITY           SKY/WX    TMP DP  RH WIND       PRES   REMARKS
SHRMAN/DENISON CLEAR     50  38  61 SE10      30.08R
GAINESVILLE    CLEAR     47  40  75 E7        30.08R
BOWIE          CLEAR     50  42  75 E5        30.03R
BRIDGEPORT     CLEAR     49  42  74 SE3       30.05R
DECATUR        CLEAR     49  41  74 E7        30.04R
DENTON         CLEAR     51  42  71 SE10      30.05S
MCKINNEY       CLEAR     49  41  74 SE3       30.08R
GREENVILLE     CLEAR     45  37  76 SE3       30.09R
ROCKWALL       CLEAR     48  42  77 E7        30.06S
TERRELL        CLEAR     49  42  77 SE6       30.09R
WAXAHACHIE     CLEAR     47  42  85 E5        30.07S
CLEBURNE       CLEAR     52  48  87 SE10      30.05S
GRANBURY       CLEAR     54  47  77 E9        30.03S
$$

TXZ083>090-098>101-113>116-127>130-139>142-154-155-171000-
WESTERN NORTH TEXAS

CITY           SKY/WX    TMP DP  RH WIND       PRES   REMARKS
WICHITA FALLS  PTCLDY    51  42  71 SE10      30.01R
WF-KICKAPOO    PTCLDY    52  42  69 SE9       30.02S
VERNON         CLOUDY    53  42  65 E9        30.00R
ABILENE        CLEAR     54  45  71 SE15      29.90R
BRECKENRIDGE   CLEAR     56  46  69 SE12G21   29.96R
MINERAL WELLS  CLEAR     52  45  77 SE16      30.00R
STEPHENVILLE   CLEAR     50  46  83 SE9       30.02R
COMANCHE       CLEAR     52  47  83 SE7       29.97R
BROWNWOOD      CLOUDY    54  48  82 SE15G21   29.95R
$$

TXZ143>147-156>162-174-175-171000-
CENTRAL TEXAS

CITY           SKY/WX    TMP DP  RH WIND       PRES   REMARKS
WACO           MOCLDY    52  48  86 SE10      30.03R
WACO-MCGREGOR  MOCLDY    52  45  76 SE9       30.04R
HILLSBORO      CLEAR     50  45  81 E10       30.04S
CORSICANA      PTCLDY    52  47  83 SE9       30.08R
MEXIA          MOCLDY    49  47  91 E5        30.05S
HEARNE         CLOUDY    56  52  87 E3        30.04S
TEMPLE         CLOUDY    55  48  76 SE13      30.05R
KILLEEN        NOT AVBL
KILLEEN-SKYLRK CLOUDY    55  46  71 SE9       30.00S
FORT HOOD      CLOUDY    55  50  82 SE9       30.00R
HAMILTON       MOCLDY    53  47  82 SE14      30.00R
LAMPASAS       CLOUDY    55  51  84 SE8       29.98S
$$

TXZ095>097-106>112-122>126-135>138-148>153-164>167-171000-
EAST TEXAS

CITY           SKY/WX    TMP DP  RH WIND       PRES   REMARKS
PARIS          CLEAR     45  36  70 SE9       30.11R WCI  40
SULPHUR SPRNGS CLEAR     47  39  75 SE5       30.12S
CLARKSVILLE    CLEAR     47  38  70 CALM      30.12R
MOUNT PLEASANT CLEAR     44  38  82 SE3       30.13S
MINEOLA        CLEAR     43  41  93 CALM      30.11S
TYLER          CLEAR     50  43  77 SE7       30.10R
LONGVIEW       CLEAR     45  40  82 CALM      30.11S
ATHENS         PTCLDY    46  45  93 SE5       30.09R
PALESTINE      MOCLDY    53  47  80 E5        30.10S
JACKSONVILLE   MOCLDY    49  44  83 E3        30.11S
NACOGDOCHES    MOCLDY    43  39  87 CALM      30.12R
LUFKIN         MOCLDY    51  47  86 E7        30.10S
$$

SUPPLEMENTAL OBSERVATIONS (CENTRAL)

CITY           SKY/WX    TMP DP  RH WIND       PRES   REMARKS
$$

SUPPLEMENTAL OBSERVATIONS (WEST)

CITY           SKY/WX    TMP DP  RH WIND       PRES   REMARKS
$$

SUPPLEMENTAL OBSERVATIONS (EAST)

CITY           SKY/WX    TMP DP  RH WIND       PRES   REMARKS
$$

SUPPLEMENTAL OBSERVATIONS ARE A COLLECTION OF AUTOMATED INSTRUMENTS
THAT ARE MAINTAINED BY A VARIETY OF FEDERAL AND STATE AGENCIES.
CERTAIN ELEMENTS...SUCH AS HUMIDITY VALUES AND SUSTAINED WIND
SPEEDS...MAY BE APPROXIMATED.